FDX429 VNKT-VNLK

Flight info

Callsign FDX429
Flight time 0h 30m
Altitude 15000
Route IGRIS1E KIMTI
Aircraft C208/L-SDFGR/C

Departure

Time 2026-04-14 16:39
Airport Tribhuvan International Airport (VNKT)

Arrival

Time 2026-04-14 17:10
Airport Tenzing-Hillary Airport (VNLK)
Time Latitude Longitude Altitude Speed Heading
2026-04-14 16:21 27.70572 85.35986 4386 ft 0 kts 250°
2026-04-14 16:34 27.70545 85.35974 4386 ft 10 kts 162°
2026-04-14 16:34 27.70464 85.36006 4384 ft 12 kts 161°
2026-04-14 16:34 27.70374 85.36036 4383 ft 15 kts 168°
2026-04-14 16:34 27.70274 85.36068 4381 ft 15 kts 182°
2026-04-14 16:35 27.70192 85.36037 4368 ft 11 kts 201°
2026-04-14 16:35 27.70092 85.35993 4364 ft 19 kts 201°
2026-04-14 16:35 27.69973 85.35939 4372 ft 15 kts 201°
2026-04-14 16:35 27.69878 85.35895 4370 ft 18 kts 203°
2026-04-14 16:36 27.69745 85.35833 4358 ft 20 kts 203°
2026-04-14 16:36 27.69632 85.35784 4364 ft 17 kts 205°
2026-04-14 16:36 27.69502 85.35723 4352 ft 24 kts 201°
2026-04-14 16:36 27.69339 85.35648 4353 ft 24 kts 203°
2026-04-14 16:37 27.69211 85.35591 4347 ft 15 kts 202°
2026-04-14 16:37 27.69126 85.35553 4349 ft 14 kts 192°
2026-04-14 16:37 27.69050 85.35603 4345 ft 10 kts 117°
2026-04-14 16:37 27.69056 85.35637 4348 ft 4 kts 42°
2026-04-14 16:38 27.69059 85.35639 4348 ft 0 kts 28°
2026-04-14 16:38 27.69180 85.35695 4346 ft 41 kts 22°
2026-04-14 16:38 27.69569 85.35871 4363 ft 78 kts 22°
2026-04-14 16:38 27.70150 85.36123 4449 ft 94 kts 20°
2026-04-14 16:39 27.70787 85.36348 4632 ft 95 kts
2026-04-14 16:39 27.71385 85.36599 4914 ft 89 kts 32°
2026-04-14 16:39 27.71812 85.37117 5087 ft 91 kts 50°
2026-04-14 16:39 27.72205 85.37652 5301 ft 86 kts 49°
2026-04-14 16:40 27.72627 85.38101 5472 ft 82 kts 30°
2026-04-14 16:40 27.73148 85.38367 5554 ft 90 kts 25°
2026-04-14 16:40 27.73525 85.38936 5681 ft 95 kts 88°
2026-04-14 16:40 27.73306 85.39623 5883 ft 93 kts 120°
2026-04-14 16:41 27.72964 85.40208 6117 ft 88 kts 127°
2026-04-14 16:41 27.72552 85.40757 6264 ft 96 kts 133°
2026-04-14 16:41 27.72152 85.41334 6495 ft 92 kts 125°
2026-04-14 16:41 27.71753 85.41944 6639 ft 98 kts 130°
2026-04-14 16:42 27.71324 85.42525 6842 ft 97 kts 130°
2026-04-14 16:42 27.70882 85.43093 7003 ft 92 kts 130°
2026-04-14 16:42 27.70459 85.43652 7150 ft 97 kts 129°
2026-04-14 16:42 27.70023 85.44215 7369 ft 92 kts 129°
2026-04-14 16:43 27.69595 85.44795 7526 ft 99 kts 129°
2026-04-14 16:43 27.69133 85.45393 7663 ft 104 kts 132°
2026-04-14 16:43 27.68639 85.46022 7803 ft 111 kts 131°
2026-04-14 16:43 27.68049 85.46622 7937 ft 118 kts 144°
2026-04-14 16:44 27.67378 85.47228 8073 ft 129 kts 140°
2026-04-14 16:44 27.66695 85.47948 8202 ft 140 kts 135°
2026-04-14 16:44 27.66007 85.48778 8329 ft 150 kts 131°
2026-04-14 16:45 27.64684 85.50725 8552 ft 163 kts 123°
2026-04-14 16:45 27.64090 85.51832 8697 ft 165 kts 118°
2026-04-14 16:45 27.63569 85.52983 8884 ft 164 kts 114°
2026-04-14 16:45 27.63127 85.54163 9079 ft 162 kts 109°
2026-04-14 16:46 27.62774 85.55339 9224 ft 156 kts 104°
2026-04-14 16:46 27.62479 85.56495 9418 ft 151 kts 105°
2026-04-14 16:46 27.62172 85.57619 9667 ft 149 kts 105°
2026-04-14 16:46 27.61871 85.58720 9885 ft 145 kts 105°
2026-04-14 16:47 27.61584 85.59794 10092 ft 141 kts 104°
2026-04-14 16:47 27.61305 85.60846 10304 ft 139 kts 104°
2026-04-14 16:47 27.61032 85.61877 10512 ft 136 kts 104°
2026-04-14 16:47 27.60763 85.62900 10686 ft 137 kts 104°
2026-04-14 16:48 27.60488 85.63930 10856 ft 138 kts 104°
2026-04-14 16:48 27.60213 85.64968 11026 ft 139 kts 104°
2026-04-14 16:48 27.59933 85.66015 11197 ft 140 kts 104°
2026-04-14 16:48 27.59651 85.67069 11364 ft 141 kts 105°
2026-04-14 16:49 27.59362 85.68129 11534 ft 142 kts 106°
2026-04-14 16:49 27.59032 85.69183 11702 ft 143 kts 109°
2026-04-14 16:49 27.58650 85.70224 11873 ft 144 kts 112°
2026-04-14 16:49 27.58219 85.71247 12046 ft 145 kts 116°
2026-04-14 16:50 27.57766 85.72267 12226 ft 146 kts 116°
2026-04-14 16:50 27.57316 85.73292 12383 ft 145 kts 117°
2026-04-14 16:50 27.56875 85.74304 12575 ft 147 kts 116°
2026-04-14 16:50 27.56410 85.75362 12738 ft 152 kts 117°
2026-04-14 16:51 27.55924 85.76447 12873 ft 158 kts 116°
2026-04-14 16:51 27.55423 85.77573 13025 ft 164 kts 117°
2026-04-14 16:51 27.54907 85.78743 13139 ft 169 kts 116°
2026-04-14 16:51 27.54393 85.79935 13257 ft 173 kts 116°
2026-04-14 16:52 27.53859 85.81165 13391 ft 177 kts 115°
2026-04-14 16:52 27.53312 85.82435 13482 ft 184 kts 117°
2026-04-14 16:52 27.52735 85.83756 13462 ft 192 kts 115°
2026-04-14 16:52 27.52219 85.85167 13460 ft 197 kts 109°
2026-04-14 16:53 27.51787 85.86641 13455 ft 200 kts 105°
2026-04-14 16:53 27.51446 85.88178 13463 ft 204 kts 100°
2026-04-14 16:53 27.51198 85.89758 13473 ft 206 kts 95°
2026-04-14 16:53 27.51057 85.91382 13466 ft 210 kts 91°
2026-04-14 16:54 27.50998 85.93037 13466 ft 213 kts 89°
2026-04-14 16:54 27.50939 85.94705 13446 ft 213 kts 89°
2026-04-14 16:54 27.50874 85.96382 13461 ft 214 kts 89°
2026-04-14 16:54 27.50812 85.98039 13462 ft 215 kts 89°
2026-04-14 16:55 27.50750 85.99724 13456 ft 215 kts 89°
2026-04-14 16:55 27.50687 86.01396 13448 ft 213 kts 89°
2026-04-14 16:55 27.50625 86.03058 13457 ft 212 kts 90°
2026-04-14 16:55 27.50563 86.04714 13463 ft 211 kts 89°
2026-04-14 16:56 27.50501 86.06365 13469 ft 211 kts 89°
2026-04-14 16:56 27.50438 86.08040 13469 ft 212 kts 89°
2026-04-14 16:56 27.50376 86.09678 13474 ft 212 kts 89°
2026-04-14 16:56 27.50313 86.11347 13482 ft 214 kts 90°
2026-04-14 16:57 27.50247 86.13029 13492 ft 216 kts 90°
2026-04-14 16:57 27.50179 86.14720 13473 ft 215 kts 90°
2026-04-14 16:57 27.50115 86.16401 13472 ft 215 kts 90°
2026-04-14 16:57 27.50052 86.18078 13472 ft 214 kts 90°
2026-04-14 16:58 27.49994 86.19736 13481 ft 210 kts 90°
2026-04-14 16:58 27.49931 86.21369 13483 ft 208 kts 91°
2026-04-14 16:58 27.49864 86.22977 13469 ft 204 kts 91°
2026-04-14 16:58 27.49801 86.24562 13464 ft 201 kts 91°
2026-04-14 16:59 27.49760 86.26124 13483 ft 198 kts 85°
2026-04-14 16:59 27.50044 86.27630 13532 ft 198 kts 65°
2026-04-14 16:59 27.50603 86.29054 13522 ft 199 kts 60°
2026-04-14 16:59 27.51197 86.30464 13501 ft 199 kts 60°
2026-04-14 17:00 27.51795 86.31872 13487 ft 199 kts 63°
2026-04-14 17:00 27.52361 86.33286 13489 ft 197 kts 61°
2026-04-14 17:00 27.52957 86.34671 13503 ft 196 kts 59°
2026-04-14 17:00 27.53552 86.36044 13501 ft 194 kts 60°
2026-04-14 17:01 27.54132 86.37403 13519 ft 196 kts 61°
2026-04-14 17:01 27.54703 86.38807 13518 ft 198 kts 62°
2026-04-14 17:01 27.55279 86.40219 13568 ft 199 kts 61°
2026-04-14 17:01 27.55860 86.41649 13450 ft 204 kts 63°
2026-04-14 17:02 27.56455 86.43064 13594 ft 193 kts 57°
2026-04-14 17:02 27.57028 86.44394 13787 ft 186 kts 65°
2026-04-14 17:02 27.57385 86.45796 13844 ft 189 kts 75°
2026-04-14 17:02 27.57569 86.47294 13790 ft 198 kts 83°
2026-04-14 17:03 27.57603 86.48890 13646 ft 208 kts 88°
2026-04-14 17:03 27.57512 86.50536 13512 ft 210 kts 90°
2026-04-14 17:03 27.57653 86.52170 13320 ft 211 kts 75°
2026-04-14 17:03 27.57984 86.53779 12956 ft 204 kts 73°
2026-04-14 17:04 27.58302 86.55290 12536 ft 195 kts 71°
2026-04-14 17:04 27.58735 86.56721 12201 ft 188 kts 68°
2026-04-14 17:04 27.59299 86.57964 12000 ft 169 kts 59°
2026-04-14 17:04 27.59759 86.59120 11855 ft 159 kts 71°
2026-04-14 17:05 27.60001 86.60321 11618 ft 158 kts 83°
2026-04-14 17:05 27.60054 86.61499 11499 ft 142 kts 87°
2026-04-14 17:05 27.60096 86.62595 11287 ft 140 kts 86°
2026-04-14 17:05 27.60176 86.63693 11102 ft 138 kts 81°
2026-04-14 17:06 27.60277 86.64754 10878 ft 137 kts 80°
2026-04-14 17:06 27.60433 86.65813 10642 ft 137 kts 79°
2026-04-14 17:06 27.60678 86.66856 10453 ft 136 kts 66°
2026-04-14 17:06 27.61173 86.67717 10322 ft 127 kts 45°
2026-04-14 17:07 27.61811 86.68293 10383 ft 109 kts 27°
2026-04-14 17:07 27.62477 86.68655 10258 ft 109 kts 18°
2026-04-14 17:07 27.63213 86.68916 10155 ft 112 kts 15°
2026-04-14 17:07 27.63958 86.69215 10091 ft 115 kts 19°
2026-04-14 17:08 27.64697 86.69508 10030 ft 112 kts 12°
2026-04-14 17:08 27.65453 86.69759 9977 ft 116 kts 18°
2026-04-14 17:08 27.66208 86.70068 9860 ft 116 kts 19°
2026-04-14 17:08 27.66953 86.70466 9678 ft 121 kts 28°
2026-04-14 17:09 27.67572 86.71050 9562 ft 107 kts 45°
2026-04-14 17:09 27.68032 86.71692 9364 ft 107 kts 53°
2026-04-14 17:09 27.68401 86.72413 9199 ft 98 kts 57°
2026-04-14 17:09 27.68686 86.72959 9338 ft 55 kts 58°
2026-04-14 17:10 27.68762 86.73107 9426 ft 3 kts 58°
2026-04-14 17:10 27.68764 86.73112 9428 ft 0 kts 62°
2026-04-14 17:11 27.68770 86.73124 9432 ft 0 kts 62°
2026-04-14 17:11 27.68776 86.73142 9431 ft 6 kts 82°
2026-04-14 17:11 27.68771 86.73162 9432 ft 1 kts 129°
2026-04-14 17:11 27.68771 86.73197 9433 ft 1 kts 306°
2026-04-14 17:12 27.68771 86.73190 9433 ft 0 kts 246°